#timestamp,LO_Frequency,Hit 
1504933215.7,286047002.3,N
1504933235.5,286046999.1,N
1504933255.3,286046996.5,N
1504933275.2,286046997.6,N
1504933295.9,286047000.1,N
1504933315.7,286046997.5,N
1504933335.5,286046996.6,N
1504933355.4,286046997.5,N
1504933375.2,286046999.5,N
1504933395.0,286046994.9,N
1504933395.9,286046994.9,N
1504933415.8,286046994.9,N
1504933435.6,286046999.0,N
1504933455.4,286046997.7,N
1504933475.3,286046996.5,N
1504933495.1,286046996.5,N
1504933515.8,286046997.0,N
1504933535.7,286046996.8,N
1504933555.5,286046995.2,N
1504933575.3,286046994.3,N
1504933595.2,286046994.0,N
1504933615.9,286046994.4,N
1504933635.7,286046991.5,P
1504933655.6,286046991.1,N
1504933675.4,286046987.4,P
1504933695.2,286046989.9,N
1504933715.1,286046986.9,P
1504933716.0,286046986.9,P
1504933735.8,286046997.9,N
1504933755.6,286046996.2,N
1504933775.5,286046997.9,N
1504933795.3,286046995.8,N
1504933815.1,286046997.6,N
1504933835.9,286046996.1,N
1504933855.7,286046994.9,N
1504933875.5,286046996.8,N
1504933895.3,286046995.4,N
1504933915.2,286046995.4,N
1504933935.0,286046994.6,N
1504933935.9,286046994.6,N
1504933955.7,286046996.0,N
1504933975.6,286046994.7,N
1504933995.4,286046994.3,N
1504934015.2,286046991.9,N
1504934035.1,286046992.0,N
1504934036.0,286046992.0,N
1504934055.8,286046991.0,N
1504934075.6,286046994.2,N
1504934095.5,286046994.8,N
1504934115.3,286046995.6,N
1504934135.1,286046994.2,N
1504934155.9,286046993.5,N
1504934175.7,286046991.8,N
1504934195.5,286046994.8,N
1504934215.3,286046993.3,N
1504934235.2,286046992.5,N
1504934255.0,286046993.5,N
1504934255.9,286046993.5,N
1504934275.8,286046992.1,P
1504934295.6,286046997.2,N
1504934315.4,286046998.5,N
1504934335.2,286046998.2,N
1504934355.1,286046998.7,N
1504934356.0,286046998.7,N
1504934375.8,286047000.6,N
1504934395.6,286047002.4,N
1504934415.5,286046998.3,N
1504934435.3,286046999.3,N
1504934455.1,286046997.1,N
1504934475.9,286046995.6,N
1504934495.7,286046997.2,N
1504934515.5,286046997.7,N
1504934535.4,286046999.0,N
1504934555.2,286046995.4,N
1504934575.0,286046996.9,N
1504934575.9,286046996.9,N
1504934595.8,286046999.5,N
1504934615.6,286046999.2,N
1504934635.4,286046996.9,N
1504934655.2,286046995.7,N
1504934675.1,286046995.7,N
1504934676.0,286046995.7,N
1504934695.8,286046994.2,N
1504934715.6,286046993.8,N
1504934735.5,286046996.4,N
1504934755.3,286046993.3,P
1504934775.1,286046996.5,N
1504934795.9,286046999.2,N
1504934815.7,286046996.5,N
1504934835.5,286046994.9,N
1504934855.4,286046998.0,N
1504934875.2,286046995.5,N
1504934895.0,286046995.4,N
1504934895.9,286046995.4,N
1504934915.8,286046995.3,N
1504934935.6,286046998.8,N
1504934955.4,286047003.9,N
1504934975.3,286047003.7,N
1504934995.1,286046999.0,N
1504934996.0,286046999.0,N
1504935015.8,286046997.8,N
1504935035.7,286046997.2,N
1504935055.5,286046995.0,N
1504935075.3,286046997.2,N
1504935095.1,286046996.5,N
1504935115.9,286046997.6,N
1504935135.7,286046998.8,N
1504935155.5,286046999.6,N
1504935175.4,286046996.7,N
1504935195.2,286046999.6,N
1504935215.0,286046999.1,N
1504935215.9,286046999.1,N
1504935235.8,286046999.3,N
1504935255.6,286047002.1,N
1504935275.4,286047002.4,N
1504935295.3,286046998.7,N
1504935315.1,286046995.7,N
1504935316.0,286046995.7,N
1504935335.8,286046997.5,N
1504935355.7,286046995.1,N
1504935375.5,286046996.1,N
1504935395.3,286046996.6,N
1504935415.2,286046999.3,N
1504935435.9,286046996.1,N
1504935455.7,286046996.0,N
1504935475.5,286046996.2,N
1504935495.4,286046994.5,N
1504935515.2,286046992.0,P
1504935535.1,286046995.8,N
1504935536.0,286046995.8,N
1504935555.8,286046997.4,N
1504935575.6,286047002.4,N
1504935595.4,286047002.8,N
1504935615.3,286047000.0,N
1504935635.1,286047001.9,N
1504935655.8,286047001.5,N
1504935675.7,286047000.2,N
1504935695.5,286047001.0,N
1504935715.3,286047000.4,N
1504935735.2,286047000.3,N
1504935755.9,286047004.1,N
1504935775.7,286047002.5,N
1504935795.6,286047001.7,N
1504935815.4,286047000.2,N
1504935835.2,286047002.4,N
1504935855.0,286046999.8,N
1504935856.0,286046999.8,N
1504935875.8,286047001.2,N
1504935895.6,286047002.3,N
1504935915.4,286046999.8,N
1504935935.3,286046997.6,N
1504935955.1,286046997.6,N
1504935975.8,286046995.0,N
1504935995.7,286046993.9,N
1504936015.5,286046992.3,N
1504936035.3,286046992.4,N
1504936055.2,286046994.6,N
1504936075.9,286046997.2,N
1504936095.7,286046999.4,N
1504936115.6,286047001.2,N
1504936135.4,286047000.6,N
1504936155.2,286046997.5,N
1504936175.0,286046997.5,N
1504936176.0,286046997.5,N
1504936195.8,286046999.5,N
1504936215.6,286046999.3,N
1504936235.4,286046998.4,N
1504936255.3,286046996.5,N
1504936275.1,286046995.5,N
1504936295.8,286046993.9,N
1504936315.7,286046992.2,N
1504936335.5,286046995.2,N
1504936355.3,286046995.3,N
1504936375.2,286046999.2,N
1504936395.9,286046998.9,N
1504936415.7,286047000.4,N
1504936435.6,286047000.2,N
1504936455.4,286046999.2,N
1504936475.2,286046998.8,N
1504936495.1,286047002.7,N
1504936496.0,286047002.7,N
1504936515.8,286047001.6,N
1504936535.6,286047001.2,N
1504936555.5,286046999.4,N
1504936575.3,286047000.0,N
1504936595.1,286047000.8,N
1504936615.8,286046998.6,N
1504936635.7,286046999.5,N
1504936655.5,286046997.4,N
1504936675.3,286046996.3,N
1504936695.2,286046994.6,N
1504936715.9,286046996.1,N
1504936735.7,286046997.6,N
1504936755.6,286046995.8,N
1504936775.4,286046995.5,N
1504936795.2,286046996.2,N
